Durant, OK

6:02 PM CST on December 09, 2019 (GMT -0600)
Eaker

Weather History for KDUA - November, 2019

Change the Weather History Date:

Tuesday, November 19, 2019

  Actual Average (WUND) Record (WUND)
Temperature  
Mean Temperature 63 °F -  
Max Temperature 80 °F - - (-1)
Min Temperature 46 °F - - (-1)
Degree Days  
Heating Degree Days 2    
Growing Degree Days 13 (Base 50)    
Moisture  
Dew Point 41 °F    
Average Humidity 52    
Maximum Humidity 93    
Minimum Humidity 20    
Precipitation  
Precipitation 0.00 in - - ()
Sea Level Pressure  
Sea Level Pressure 29.94 in    
Wind  
Wind Speed 4 mph (SSE)    
Max Wind Speed 12 mph    
Max Gust Speed -    
Visibility 10 miles    
Events      
Averages and records for this station are not official NWS values.
T = Trace of Precipitation, MM = Missing Value Source: NWS Daily Summary

Daily Weather History Graph

Daily Weather History Graph

Search for Another Location

Airport or City:

Astronomy

Nov. 19, 2019 Rise Set
Actual Time 7:01 AM CST 5:20 PM CST
Civil Twilight 6:34 AM CST 5:46 PM CST
Nautical Twilight 6:04 AM CST 6:17 PM CST
Astronomical Twilight 5:34 AM CST 6:46 PM CST
Moon No Moon Rise 1:14 PM CST (11/19)
Length of Visible Light 11h 11m
Length of Day
10h 18m
Waning Gibbous, 51% of the Moon is Illuminated
Nov 19
Waning Gibbous
Nov 19
Last Quarter
Nov 26
New
Dec 4
First Quarter
Dec 11
Full

Hourly Weather History & Observations

Time (CST) Temp. Windchill Dew Point Humidity Pressure Visibility Wind Dir Wind Speed Gust Speed Precip Events Conditions
12:17 AM 55.4 °F - 42.8 °F 63% 29.92 in 10.0 mi West 4.6 mph - N/A   Clear
12:40 AM 55.4 °F - 42.8 °F 63% 29.92 in 10.0 mi West 5.8 mph - N/A   Clear
12:57 AM 53.6 °F - 42.8 °F 67% 29.92 in 10.0 mi West 5.8 mph - N/A   Clear
1:17 AM 53.6 °F - 42.8 °F 67% 29.92 in 10.0 mi West 4.6 mph - N/A   Clear
1:38 AM 53.6 °F - 42.8 °F 67% 29.92 in 10.0 mi West 3.5 mph - N/A   Clear
1:57 AM 53.6 °F - 42.8 °F 67% 29.93 in 10.0 mi West 3.5 mph - N/A   Clear
2:17 AM 53.6 °F - 41.0 °F 62% 29.93 in 10.0 mi Calm Calm - N/A   Clear
2:38 AM 51.8 °F - 41.0 °F 67% 29.92 in 10.0 mi Calm Calm - N/A   Clear
3:17 AM 50.0 °F - 41.0 °F 71% 29.93 in 10.0 mi Calm Calm - N/A   Clear
3:37 AM 48.2 °F - 39.2 °F 71% 29.92 in 10.0 mi Calm Calm - N/A   Clear
3:57 AM 46.4 °F - 39.2 °F 76% 29.92 in 10.0 mi Calm Calm - N/A   Clear
4:17 AM 46.4 °F 45.2 °F 41.0 °F 81% 29.92 in 10.0 mi SW 3.5 mph - N/A   Clear
4:40 AM 46.4 °F 44.3 °F 41.0 °F 81% 29.93 in 10.0 mi WSW 4.6 mph - N/A   Clear
4:58 AM 48.2 °F - 42.8 °F 82% 29.93 in 10.0 mi Calm Calm - N/A   Clear
5:58 AM 48.2 °F - 44.6 °F 87% 29.93 in 10.0 mi Calm Calm - N/A   Clear
6:18 AM 48.2 °F - 46.4 °F 93% 29.94 in 10.0 mi West 3.5 mph - N/A   Clear
6:38 AM 48.2 °F - 42.8 °F 82% 29.95 in 10.0 mi Calm Calm - N/A   Clear
6:58 AM 46.4 °F 45.2 °F 42.8 °F 87% 29.97 in 10.0 mi NNW 3.5 mph - N/A   Clear
7:18 AM 46.4 °F - 42.8 °F 87% 29.98 in 10.0 mi Calm Calm - N/A   Clear
7:58 AM 51.8 °F - 42.8 °F 71% 30.00 in 10.0 mi WNW 5.8 mph - N/A   Clear
8:38 AM 59.0 °F - 42.8 °F 55% 30.01 in 10.0 mi Calm Calm - N/A   Clear
8:58 AM 60.8 °F - 41.0 °F 48% 30.01 in 10.0 mi NNE 3.5 mph - N/A   Clear
9:59 AM 64.4 °F - 39.2 °F 40% 30.03 in 10.0 mi ENE 3.5 mph - N/A   Clear
10:58 AM 71.6 °F - 39.2 °F 31% 30.01 in 10.0 mi East 5.8 mph - N/A   Clear
11:18 AM 73.4 °F - 39.2 °F 29% 30.00 in 10.0 mi ESE 5.8 mph - N/A   Clear
11:38 AM 73.4 °F - 37.4 °F 27% 29.99 in 10.0 mi ESE 8.1 mph - N/A   Clear
12:18 PM 75.2 °F - 37.4 °F 25% 29.97 in 10.0 mi ESE 6.9 mph - N/A   Clear
12:58 PM 78.8 °F - 35.6 °F 21% 29.96 in 10.0 mi ESE 9.2 mph - N/A   Clear
1:18 PM 78.8 °F - 35.6 °F 21% 29.95 in 10.0 mi ESE 5.8 mph - N/A   Clear
1:38 PM 78.8 °F - 35.6 °F 21% 29.95 in 10.0 mi SE 5.8 mph - N/A   Clear
1:58 PM 78.8 °F - 35.6 °F 21% 29.94 in 10.0 mi SE 5.8 mph - N/A   Clear
2:18 PM 80.6 °F - 37.4 °F 21% 29.94 in 10.0 mi SE 10.4 mph - N/A   Clear
2:38 PM 80.6 °F - 35.6 °F 20% 29.93 in 10.0 mi SSE 6.9 mph - N/A   Clear
3:00 PM 80.6 °F - 37.4 °F 21% 29.93 in 10.0 mi SSE 9.2 mph - N/A   Clear
3:18 PM 80.6 °F - 37.4 °F 21% 29.93 in 10.0 mi SSE 10.4 mph - N/A   Clear
3:38 PM 78.8 °F - 37.4 °F 23% 29.93 in 10.0 mi SSE 11.5 mph - N/A   Clear
4:18 PM 78.8 °F - 37.4 °F 23% 29.92 in 10.0 mi SSE 9.2 mph - N/A   Clear
4:58 PM 75.2 °F - 39.2 °F 27% 29.92 in 10.0 mi SSE 8.1 mph - N/A   Clear
5:18 PM 71.6 °F - 39.2 °F 31% 29.92 in 10.0 mi SSE 6.9 mph - N/A   Clear
5:38 PM 69.8 °F - 39.2 °F 33% 29.92 in 10.0 mi SE 5.8 mph - N/A   Clear
5:58 PM 66.2 °F - 39.2 °F 37% 29.92 in 10.0 mi SE 4.6 mph - N/A   Clear
6:18 PM 64.4 °F - 39.2 °F 40% 29.92 in 10.0 mi SE 4.6 mph - N/A   Clear
6:38 PM 64.4 °F - 41.0 °F 42% 29.92 in 10.0 mi SE 5.8 mph - N/A   Clear
6:58 PM 62.6 °F - 41.0 °F 45% 29.93 in 10.0 mi SE 4.6 mph - N/A   Clear
7:58 PM 57.2 °F - 42.8 °F 59% 29.94 in 10.0 mi SE 4.6 mph - N/A   Clear
8:20 PM 59.0 °F - 42.8 °F 55% 29.94 in 10.0 mi SE 5.8 mph - N/A   Clear
8:38 PM 60.8 °F - 42.8 °F 52% 29.94 in 10.0 mi SE 5.8 mph - N/A   Clear
8:59 PM 59.0 °F - 42.8 °F 55% 29.94 in 10.0 mi SE 5.8 mph - N/A   Clear
9:40 PM 55.4 °F - 42.8 °F 63% 29.95 in 10.0 mi SSE 5.8 mph - N/A   Clear
10:18 PM 55.4 °F - 42.8 °F 63% 29.95 in 10.0 mi SSE 5.8 mph - N/A   Clear
10:38 PM 55.4 °F - 44.6 °F 67% 29.95 in 10.0 mi SSE 8.1 mph - N/A   Clear
10:57 PM 57.2 °F - 44.6 °F 63% 29.95 in 10.0 mi SSE 8.1 mph - N/A   Clear
11:18 PM 55.4 °F - 44.6 °F 67% 29.95 in 10.0 mi South 6.9 mph - N/A   Clear
11:58 PM 55.4 °F - 44.6 °F 67% 29.95 in 10.0 mi SSE 5.8 mph - N/A   Clear